Torna al catalogo

COSMOS 585

AttivoMilitareLEO
NORAD 6825·PAYLOAD·🇷🇺 Russia

Lanciato Sep 8, 1973 da Plesetsk Cosmodrome

Loading…

Prossimi Passaggi (prossime 24 ore)

TLE

AggiornatoSource: Space-Track

Epoca: Sep 14, 2026, 08:24 UTC

1 06825U 73064A   26257.35015785 -.00000031  00000-0 -73029-4 0  9998
2 06825  74.0240  42.1770 0018550  28.8538 353.9326 12.68234751454502

Traccia COSMOS 585 in tempo reale con AllMySat

Download on the App Store